EDT,Max TemperatureF,Mean TemperatureF,Min TemperatureF,Max Dew PointF,MeanDew PointF,Min DewpointF,Max Humidity, Mean Humidity, Min Humidity, Max Sea Level PressureIn, Mean Sea Level PressureIn, Min Sea Level PressureIn, Max VisibilityMiles, Mean VisibilityMiles, Min VisibilityMiles, Max Wind SpeedMPH, Mean Wind SpeedMPH, Max Gust SpeedMPH,PrecipitationIn, CloudCover, Events, WindDirDegrees
2013-8-1,79,69,59,65,60,50,100,83,34,30.02,29.97,29.95,10,4,0,17,6,23,T,4,Fog-Rain,289
2013-8-2,80,69,58,69,61,53,94,84,63,29.98,29.93,29.84,10,9,2,20,7,26,0.48,6,Rain-Thunderstorm,209
2013-8-3,79,68,57,65,59,48,97,75,30,30.10,30.01,29.95,10,6,1,18,7,23,T,5,,324
2013-8-4,76,66,55,56,53,49,87,65,39,30.21,30.16,30.11,10,10,10,15,6,23,0.00,1,,9
2013-8-5,74,64,53,60,55,46,86,68,45,30.15,30.05,29.94,10,10,8,13,6,16,0.01,4,Rain,176
2013-8-6,79,71,63,68,64,61,100,83,64,29.95,29.91,29.88,10,7,2,13,7,16,0.81,6,Rain,170
2013-8-7,81,73,65,71,67,63,94,85,69,29.95,29.87,29.83,10,6,0,38,7,49,1.28,5,Fog-Rain-Thunderstorm,208
2013-8-8,79,71,63,63,60,57,90,71,48,30.01,29.98,29.94,10,10,8,14,7,17,0.00,3,,24
2013-8-9,80,70,59,63,58,54,90,66,33,30.02,30.00,29.98,10,10,10,10,3,16,0.00,1,,309
2013-8-10,81,73,64,65,60,54,90,67,44,30.13,30.09,30.03,10,10,8,15,6,20,0.00,3,,14
2013-8-11,79,68,57,60,56,54,89,62,38,30.15,30.11,30.06,10,10,10,12,2,15,T,4,,276
2013-8-12,83,74,64,70,64,61,94,76,54,30.06,29.95,29.87,10,9,4,15,7,21,0.06,4,Rain-Thunderstorm,255
2013-8-13,69,61,53,63,52,46,94,70,41,30.14,30.03,29.91,10,9,3,24,12,30,0.00,1,,352
2013-8-14,70,58,46,48,46,42,86,65,37,30.23,30.19,30.15,10,10,10,16,6,20,0.00,1,,350
2013-8-15,75,62,48,53,50,45,89,69,38,30.21,30.17,30.12,10,10,10,12,3,15,0.00,1,,265
2013-8-16,79,65,50,55,50,47,93,61,25,30.20,30.17,30.15,10,10,10,10,3,16,0.00,0,,50
2013-8-17,80,66,52,56,53,50,93,63,31,30.26,30.22,30.19,10,10,9,15,4,18,0.00,1,,83
2013-8-18,82,69,56,60,56,52,87,64,36,30.22,30.17,30.12,10,10,9,13,3,15,0.00,1,,35
2013-8-19,82,70,57,63,58,54,90,67,42,30.14,30.11,30.06,10,9,6,10,3,22,0.00,1,,264
2013-8-20,85,75,64,64,62,60,87,66,41,30.16,30.11,30.08,10,9,5,13,4,16,0.00,1,,205
2013-8-21,88,77,66,67,64,60,87,65,40,30.13,30.08,30.00,10,9,5,15,6,20,0.00,0,,203
2013-8-22,78,72,66,69,66,64,93,84,67,30.13,30.07,30.02,10,9,5,26,8,32,0.35,5,Rain-Thunderstorm,289
2013-8-23,82,71,59,66,59,50,100,74,29,30.19,30.13,30.09,10,7,1,14,5,17,0.00,3,,23
2013-8-24,82,68,54,56,53,49,90,60,27,30.30,30.26,30.20,10,10,10,14,4,17,0.00,0,,156
2013-8-25,87,74,60,63,59,55,84,62,36,30.30,30.24,30.17,10,10,10,15,6,20,0.00,0,,212
2013-8-26,88,77,66,70,65,59,79,66,43,30.20,30.12,30.03,10,10,10,17,9,22,0.00,0,,230
2013-8-27,93,82,71,72,69,67,87,67,45,30.02,29.95,29.86,10,10,7,21,9,29,0.00,0,,226
2013-8-28,85,76,67,72,70,66,94,74,56,30.03,29.93,29.85,10,10,6,17,8,21,0.00,4,,306
2013-8-29,89,76,63,68,64,59,100,80,37,30.09,30.04,30.00,10,6,0,10,2,13,0.00,2,Fog,25
2013-8-30,93,80,66,73,68,64,91,71,38,30.01,29.88,29.76,10,9,6,22,8,30,T,1,Rain,239
2013-8-31,80,75,69,71,67,64,91,82,66,29.86,29.83,29.78,10,10,6,12,3,16,0.04,5,Rain,332